Flag for U.S.A. Weather past 2 weeks in Oakland, California, U.S.A.

Now
60 °F

Scattered clouds.


Feels Like: 60 °F
Forecast: 51 / 74 °F
Wind: 8 mph from West

Location: Metro Oakland International Airport

Current Time: Apr 26, 2015 at 9:58:48 PM

Latest Report: Apr 26, 2015 at 8:53 PM


Visibility: 10 mi

Pressure: 30.08 "Hg

Humidity: 67%

Dew point: 49 °F

Location of OaklandLocation

Historic Weather in Oakland — Graph

°F

Oakland temperature yesterday

Maximum temperature yesterday: 62 °F (at 2:53 PM)
Minimum temperature yesterday: 52 °F (at 8:53 AM)
Average temperature yesterday: 56 °F

Past Weeks' High & Low Weather Summary

 TemperatureHumidityPressure
High81 °F (Apr 16, 2:53 PM)97% (Apr 12, 7:53 AM)30.34 "Hg (Apr 12, 7:53 AM)
Low47 °F (Apr 15, 5:53 AM)12% (Apr 16, 2:53 PM)29.85 "Hg (Apr 20, 6:53 PM)
Average57 °F68%30.00 "Hg
* Reported Apr 11 8:53 PM — Apr 26 8:53 PM, Oakland, Weather by CustomWeather, © 2015

Note: Actual official high and low records may vary slightly from our data, if they occured in-between our weather recording intervals... More about our weather records

Advertising

Oakland weather history for previous 24 hours

 ConditionsComfort  
Time TempWeatherWind HumidityBarometerVisibility
8:53 PM
Sun, Apr 26
60 °FScattered clouds.8 mph67%30.08 "Hg10 mi
7:53 PM62 °FPartly sunny.9 mph65%30.06 "Hg10 mi
6:53 PM62 °FPartly sunny.12 mph65%30.06 "Hg10 mi
5:53 PM65 °FPartly sunny.12 mph59%30.08 "Hg10 mi
4:53 PM68 °FScattered clouds.16 mph53%30.09 "Hg10 mi
3:53 PM68 °FScattered clouds.15 mph53%30.10 "Hg10 mi
2:53 PM68 °FScattered clouds.18 mph51%30.11 "Hg10 mi
1:53 PM66 °FScattered clouds.10 mph49%30.12 "Hg10 mi
12:53 PM64 °FScattered clouds.8 mph49%30.14 "Hg10 mi
11:53 AM63 °FPassing clouds.10 mph41%30.14 "Hg10 mi
10:53 AM60 °FPassing clouds.8 mph47%30.16 "Hg10 mi
9:53 AM58 °FPassing clouds.6 mph56%30.14 "Hg10 mi
8:53 AM56 °FPassing clouds.No wind67%30.14 "Hg10 mi
7:53 AM54 °FPassing clouds.No wind77%30.13 "Hg10 mi
6:53 AM48 °FPassing clouds.3 mph80%30.10 "Hg10 mi
5:53 AM51 °FPassing clouds.3 mph77%30.09 "Hg10 mi
4:53 AM48 °FPassing clouds.3 mph83%30.08 "Hg10 mi
3:53 AM48 °FPassing clouds.5 mph83%30.07 "Hg10 mi
2:53 AM51 °FPassing clouds.No wind74%30.06 "Hg10 mi
1:53 AM53 °FPassing clouds.8 mph72%30.06 "Hg10 mi
12:53 AM54 °FPassing clouds.7 mph69%30.06 "Hg10 mi
11:53 PM
Sat, Apr 25
54 °FPassing clouds.10 mph69%30.06 "Hg10 mi
10:53 PM54 °FPassing clouds.10 mph69%30.05 "Hg10 mi
9:53 PM55 °FPassing clouds.16 mph69%30.04 "Hg10 mi
Weather by CustomWeather, © 2015

See weather overviewHow to use our weather pages